EIN43F EIDW-LIMC

Flight info

Callsign EIN43F
Flight time N/A
Altitude 39000
Route ENDEQ3J ENDEQ Q36 EPOXI L15 KEPAD L151 MID UL612 VEULE DCT TEPRI UN491 POGZI DCT GELTA DCT LUVAL DCT SHARA DCT DEVDI DCT BASGO Z424 RIXUV
Aircraft A320/M-SDE3FGHIRWY/LB1

Departure

Time 2026-02-21 07:39
Airport Dublin Airport (EIDW)

Arrival

Time N/A
Airport Milan Malpensa International Airport (LIMC)
Time Latitude Longitude Altitude Speed Heading
2026-02-21 07:24 53.42383 -6.24451 205 ft 0 kts 135°
2026-02-21 07:29 53.42394 -6.24468 205 ft 2 kts 136°
2026-02-21 07:29 53.42404 -6.24486 206 ft 2 kts 136°
2026-02-21 07:29 53.42415 -6.24503 206 ft 2 kts 145°
2026-02-21 07:30 53.42429 -6.24514 207 ft 2 kts 168°
2026-02-21 07:30 53.42444 -6.24515 207 ft 2 kts 189°
2026-02-21 07:30 53.42458 -6.24508 209 ft 2 kts 209°
2026-02-21 07:30 53.42470 -6.24493 210 ft 2 kts 230°
2026-02-21 07:31 53.42474 -6.24483 210 ft 1 kts 239°
2026-02-21 07:31 53.42476 -6.24479 210 ft 0 kts 237°
2026-02-21 07:33 53.42408 -6.24659 204 ft 13 kts 236°
2026-02-21 07:33 53.42363 -6.24805 202 ft 15 kts 274°
2026-02-21 07:33 53.42435 -6.24918 203 ft 14 kts 337°
2026-02-21 07:34 53.42526 -6.24984 205 ft 14 kts 336°
2026-02-21 07:34 53.42615 -6.25046 207 ft 13 kts 338°
2026-02-21 07:34 53.42697 -6.25119 208 ft 13 kts 314°
2026-02-21 07:34 53.42768 -6.25228 208 ft 14 kts 333°
2026-02-21 07:35 53.42862 -6.25295 208 ft 14 kts 336°
2026-02-21 07:35 53.42950 -6.25374 210 ft 14 kts 334°
2026-02-21 07:35 53.43041 -6.25440 211 ft 14 kts 336°
2026-02-21 07:35 53.43135 -6.25508 211 ft 15 kts 336°
2026-02-21 07:36 53.43229 -6.25573 213 ft 14 kts 340°
2026-02-21 07:36 53.43323 -6.25628 214 ft 12 kts 335°
2026-02-21 07:36 53.43399 -6.25609 213 ft 12 kts 60°
2026-02-21 07:36 53.43402 -6.25448 211 ft 14 kts 96°
2026-02-21 07:37 53.43393 -6.25267 209 ft 16 kts 95°
2026-02-21 07:37 53.43383 -6.25063 208 ft 17 kts 94°
2026-02-21 07:37 53.43374 -6.24858 208 ft 17 kts 96°
2026-02-21 07:37 53.43357 -6.24651 208 ft 16 kts 91°
2026-02-21 07:38 53.43426 -6.24552 210 ft 14 kts
2026-02-21 07:38 53.43518 -6.24570 210 ft 13 kts 304°
2026-02-21 07:38 53.43535 -6.24745 208 ft 24 kts 276°
2026-02-21 07:38 53.43573 -6.25507 211 ft 104 kts 276°
2026-02-21 07:39 53.43653 -6.27064 278 ft 158 kts 270°
2026-02-21 07:39 53.43742 -6.28934 987 ft 162 kts 276°
2026-02-21 07:39 53.44185 -6.30569 2005 ft 159 kts 303°
2026-02-21 07:39 53.44944 -6.31888 2747 ft 167 kts 306°
2026-02-21 07:40 53.45701 -6.33500 3287 ft 185 kts 301°
2026-02-21 07:40 53.46690 -6.35035 3925 ft 211 kts 331°
2026-02-21 07:40 53.48176 -6.35354 4796 ft 228 kts 357°
2026-02-21 07:40 53.49745 -6.35145 5754 ft 229 kts 358°
2026-02-21 07:41 53.51299 -6.34420 6644 ft 245 kts 27°
2026-02-21 07:41 53.52479 -6.32325 7413 ft 265 kts 62°
2026-02-21 07:41 53.52851 -6.29062 8023 ft 284 kts 95°
2026-02-21 07:41 53.52564 -6.25655 8607 ft 301 kts 104°
2026-02-21 07:42 53.52104 -6.22046 9218 ft 317 kts 105°
2026-02-21 07:42 53.51650 -6.18428 10022 ft 324 kts 104°
2026-02-21 07:42 53.51208 -6.14611 10800 ft 334 kts 103°
2026-02-21 07:42 53.50761 -6.10488 11551 ft 345 kts 102°
2026-02-21 07:43 53.50316 -6.06178 12407 ft 352 kts 102°
2026-02-21 07:43 53.49905 -6.02097 13201 ft 358 kts 102°
2026-02-21 07:43 53.49760 -6.00652 13480 ft 360 kts 102°
2026-02-21 07:44 53.47639 -5.79725 17243 ft 383 kts 101°
2026-02-21 07:44 53.47157 -5.75009 18033 ft 387 kts 101°
2026-02-21 07:45 53.46671 -5.70290 18779 ft 392 kts 101°
2026-02-21 07:45 53.46182 -5.65541 19499 ft 396 kts 101°
2026-02-21 07:45 53.45670 -5.60625 20239 ft 400 kts 100°
2026-02-21 07:45 53.45152 -5.55662 20962 ft 404 kts 100°
2026-02-21 07:46 53.44686 -5.50743 21649 ft 409 kts 97°
2026-02-21 07:46 53.44423 -5.45645 22336 ft 413 kts 92°
2026-02-21 07:46 53.44288 -5.40364 23028 ft 417 kts 90°
2026-02-21 07:46 53.44181 -5.35168 23715 ft 420 kts 90°
2026-02-21 07:47 53.44076 -5.30255 24339 ft 424 kts 91°
2026-02-21 07:47 53.43959 -5.25328 24929 ft 428 kts 91°
2026-02-21 07:47 53.43828 -5.20279 25535 ft 431 kts 91°
2026-02-21 07:47 53.43693 -5.15216 26097 ft 435 kts 91°
2026-02-21 07:48 53.43542 -5.10187 26674 ft 438 kts 91°
2026-02-21 07:48 53.43380 -5.05111 27247 ft 441 kts 91°
2026-02-21 07:48 53.43213 -4.99866 27780 ft 445 kts 91°
2026-02-21 07:48 53.43037 -4.94486 28309 ft 448 kts 92°
2026-02-21 07:49 53.42865 -4.89261 28791 ft 452 kts 91°
2026-02-21 07:49 53.42683 -4.83817 29279 ft 454 kts 91°
2026-02-21 07:49 53.42503 -4.78286 29794 ft 457 kts 91°
2026-02-21 07:49 53.42322 -4.72879 30217 ft 460 kts 91°
2026-02-21 07:50 53.42141 -4.67486 30615 ft 463 kts 91°
2026-02-21 07:50 53.41952 -4.61944 31036 ft 466 kts 91°
2026-02-21 07:50 53.41758 -4.56433 31438 ft 468 kts 91°
2026-02-21 07:50 53.41561 -4.50923 31848 ft 471 kts 91°
2026-02-21 07:51 53.41363 -4.45431 32225 ft 473 kts 91°
2026-02-21 07:51 53.41161 -4.39799 32571 ft 475 kts 91°
2026-02-21 07:51 53.40955 -4.34162 32941 ft 478 kts 92°
2026-02-21 07:51 53.40748 -4.28628 33238 ft 480 kts 92°
2026-02-21 07:52 53.40538 -4.23092 33568 ft 482 kts 92°
2026-02-21 07:52 53.40322 -4.17495 33861 ft 484 kts 92°
2026-02-21 07:52 53.40102 -4.11843 34267 ft 484 kts 92°
2026-02-21 07:52 53.39884 -4.06304 34671 ft 483 kts 91°
2026-02-21 07:53 53.39660 -4.00686 35037 ft 483 kts 92°
2026-02-21 07:53 53.39435 -3.95099 35351 ft 483 kts 91°
2026-02-21 07:53 53.39209 -3.89494 35691 ft 482 kts 91°
2026-02-21 07:53 53.38977 -3.83915 36032 ft 481 kts 91°
2026-02-21 07:54 53.38746 -3.78353 36329 ft 481 kts 91°
2026-02-21 07:54 53.38424 -3.72782 36607 ft 482 kts 95°
2026-02-21 07:54 53.37885 -3.67289 36896 ft 482 kts 99°
2026-02-21 07:54 53.37104 -3.61904 37198 ft 482 kts 104°
2026-02-21 07:55 53.36046 -3.56584 37407 ft 485 kts 110°
2026-02-21 07:55 53.34708 -3.51408 37534 ft 489 kts 116°
2026-02-21 07:55 53.33100 -3.46424 37664 ft 492 kts 122°
2026-02-21 07:55 53.31195 -3.41600 37793 ft 495 kts 128°
2026-02-21 07:56 53.29065 -3.37130 37957 ft 495 kts 133°
2026-02-21 07:56 53.26775 -3.32853 38194 ft 496 kts 135°
2026-02-21 07:56 53.24481 -3.28646 38427 ft 496 kts 135°
2026-02-21 07:56 53.22162 -3.24359 38650 ft 497 kts 134°
2026-02-21 07:57 53.19890 -3.20104 38890 ft 496 kts 134°
2026-02-21 07:57 53.17594 -3.15786 39011 ft 497 kts 134°
2026-02-21 07:57 53.15318 -3.11497 39019 ft 497 kts 134°
2026-02-21 07:58 53.10754 -3.02935 39014 ft 498 kts 134°
2026-02-21 07:58 53.06170 -2.94380 39019 ft 495 kts 134°
2026-02-21 07:59 53.01597 -2.85869 39022 ft 496 kts 133°
2026-02-21 07:59 52.97014 -2.77366 39031 ft 496 kts 134°
2026-02-21 08:00 52.92442 -2.68920 39037 ft 497 kts 133°
2026-02-21 08:00 52.87830 -2.60429 39052 ft 497 kts 133°
2026-02-21 08:01 52.83169 -2.52049 39057 ft 496 kts 137°
2026-02-21 08:01 52.77989 -2.44580 39049 ft 492 kts 146°
2026-02-21 08:02 52.72380 -2.38288 39048 ft 491 kts 150°
2026-02-21 08:02 52.66681 -2.32099 39061 ft 491 kts 150°
2026-02-21 08:03 52.58197 -2.22793 39086 ft 491 kts 150°
2026-02-21 08:03 52.52539 -2.16618 39090 ft 492 kts 150°
2026-02-21 08:04 52.46860 -2.10437 39091 ft 492 kts 150°
2026-02-21 08:04 52.41196 -2.04294 39108 ft 492 kts 150°
2026-02-21 08:05 52.35485 -1.98114 39092 ft 493 kts 150°
2026-02-21 08:05 52.29783 -1.91964 39100 ft 493 kts 150°
2026-02-21 08:06 52.24063 -1.85821 39099 ft 492 kts 150°
2026-02-21 08:06 52.18400 -1.79752 39107 ft 491 kts 150°
2026-02-21 08:07 52.12700 -1.73665 39112 ft 491 kts 150°
2026-02-21 08:07 52.06975 -1.67572 39101 ft 493 kts 150°
2026-02-21 08:08 52.01262 -1.61489 39131 ft 492 kts 150°
2026-02-21 08:08 51.95537 -1.55432 39126 ft 493 kts 150°
2026-02-21 08:09 51.89831 -1.49430 39123 ft 493 kts 150°
2026-02-21 08:09 51.84076 -1.43385 39130 ft 494 kts 150°
2026-02-21 08:10 51.78376 -1.37405 39133 ft 493 kts 150°
2026-02-21 08:10 51.72624 -1.31387 39130 ft 493 kts 151°
2026-02-21 08:11 51.71659 -1.30380 39127 ft 493 kts 151°
2026-02-21 08:12 51.55353 -1.13450 39161 ft 493 kts 151°
2026-02-21 08:12 51.49587 -1.07502 39148 ft 495 kts 150°
2026-02-21 08:13 51.43807 -1.01553 39137 ft 495 kts 150°
2026-02-21 08:13 51.38052 -0.95646 39171 ft 494 kts 150°
2026-02-21 08:14 51.32247 -0.89706 39171 ft 495 kts 150°
2026-02-21 08:14 51.26492 -0.83837 39176 ft 496 kts 150°
2026-02-21 08:15 51.20680 -0.77927 39163 ft 495 kts 150°